Location: ????????
(60.5616°N, 46.8254°E)
Time: 05:09:01
(UTC+00:00)

Cosmos 2082 Rocket - Pass Details

Date: 18 February 2020
Orbit: 833 x 854 km, 71.0° (Epoch: 31 March)

Event Time Altitude Azimuth Distance (km) Brightness Sun altitude
Rises 14:22:36 0° 320° (NW) 3,397 5.7 -4.8°
Reaches altitude 10° 14:25:04 10° 317° (NW) 2,461 5.0 -5.1°
Maximum altitude 14:30:36 59° 239° (WSW) 971 3.0 -5.8°
Drops below altitude 10° 14:36:08 10° 162° (SSE) 2,460 4.6 -6.5°
Sets 14:38:36 0° 158° (SSE) 3,395 5.2 -6.7°
